Weather Service Report


659 
ASUS43 KDTX 221010
RWRMI 
MICHIGAN HOURLY REGIONAL WEATHER ROUNDUP
NATIONAL WEATHER SERVICE DETROIT/PONTIAC MI
500 AM EST WED NOV 22 2017

NOTE: "FAIR" INDICATES FEW OR NO CLOUDS BELOW 12,000 FEET WITH NO
SIGNIFICANT WEATHER AND/OR OBSTRUCTION TO VISIBILITY.

MIZ047>049-052>055-059>063-066>070-074>076-081>083-221100-
SOUTHEAST LOWER MICHIGAN
  
CITY           SKY/WX    TMP DP  RH WIND       PRES   REMARKS
ADRIAN         CLOUDY    31  20  63 N12       30.18R WCI  22          
ALMA           CLOUDY    29  17  59 W9        30.20R WCI  21          
ANN ARBOR      CLOUDY    31  19  61 NW13      30.16R WCI  21          
BAD AXE        CLOUDY    29  16  58 NW9       30.15R WCI  20          
CARO           CLOUDY    29  21  71 W10       30.16R WCI  20          
DETROIT CITY   CLOUDY    32  18  56 N9        30.16R WCI  24          
DETROIT        CLOUDY    32  20  61 N10       30.17R WCI  24          
FLINT          CLOUDY    29  18  63 NW9       30.18R WCI  20          
GROSSE ILE     CLOUDY    32  22  65 N8        30.15R WCI  25          
HILLSDALE      CLOUDY    30  19  64 NW9       30.16R WCI  22          
HOWELL         CLOUDY    29  19  64 NW8       30.17R WCI  21          

CITY           SKY/WX    TMP DP  RH WIND       PRES   REMARKS
JACKSON        CLOUDY    31  19  61 W7        30.17R WCI  24          
LAMBERTVILLE   CLOUDY    34  23  64 N6        30.17R WCI  29          
LANSING        CLOUDY    29  19  66 N10       30.20R WCI  20          
LAPEER         CLOUDY    30  19  65 NW9       30.15R WCI  21          
MASON          CLOUDY    31  20  62 N9        30.19R WCI  23          
MONROE         CLOUDY    33  20  59 NW7       30.16R WCI  27          
MT. CLEMENS    CLOUDY    31  22  68 NW12      30.14R WCI  22          
PONTIAC        FLURRIES  29  20  69 NW16      30.14R WCI  17          
PORT HOPE        N/A     30  18  60 NW16G26   30.12R WCI  19          
PORT HURON     CLOUDY    30  19  64 NW8       30.14R WCI  23          
TRI CITIES     CLOUDY    29  19  66 W10       30.19R WCI  20          
MIDLAND        CLOUDY    30  18  61 NW6       30.18R WCI  24          
TROY           CLOUDY    33  18  55 NW7       30.17R WCI  27          
SAGINAW HB     CLOUDY    30  19  64 W9        30.18R WCI  22          
$$
MIZ043>046-050>051-056>058-064>065-071>073-077>080-221100-
SOUTHWEST LOWER MICHIGAN
  
CITY           SKY/WX    TMP DP  RH WIND       PRES   REMARKS
BATTLE CREEK   CLOUDY    30  18  60 NW9       30.20R WCI  22          
BENTON HARBOR  CLOUDY    33  19  56 VRB5      30.23R WCI  29          
BIG RAPIDS     CLOUDY    28  17  64 NW5       30.19R WCI  23          
COLDWATER      CLOUDY    31  20  63 NW7       30.18R WCI  24          
FREMONT        CLOUDY    29  18  64 N13       30.21R WCI  19          
HOLLAND        CLOUDY    30  18  60 N6        30.23R WCI  24          
GRAND RAPIDS   CLOUDY    29  18  63 N8        30.22R WCI  21          
IONIA          CLOUDY    28  16  60 NW6       30.20R WCI  22          
KALAMAZOO      CLOUDY    30  18  60 N13       30.21R WCI  20          
LUDINGTON      CLOUDY    29  17  60 N7        30.22R WCI  22          
MARSHALL       CLOUDY    30  18  60 NW6       30.19R WCI  24          
MOUNT PLEASANT CLOUDY    30  17  57 W9        30.18R WCI  22          
MUSKEGON       CLOUDY    30  18  60 N8        30.23R WCI  22          
SOUTH HAVEN    CLOUDY    32  20  63 NE8       30.23R WCI  25          
$$
MIZ016>042-221100-
NORTHERN LOWER MICHIGAN
  
CITY           SKY/WX    TMP DP  RH WIND       PRES   REMARKS
ALPENA         FLURRIES  26  22  84 NW8       30.16R WCI  18          
BEAVER ISLAND  CLOUDY    28  19  68 NW7       30.18R WCI  21          
BELLAIRE       FLURRIES  28  24  84 NW3       30.19R                  
CADILLAC       CLOUDY    26  17  66 NW7       30.15R WCI  19          
CHARLEVOIX     CLOUDY    30  12  48 N16G23    30.20R WCI  18          
FRANKFORT      CLOUDY    30  17  58 NW7       30.21R WCI  23          
GAYLORD        FLURRIES  23  18  81 VRB5      30.12R WCI  17          
GRAYLING       FLURRIES  25  21  83 W7        30.15R WCI  17          
HARBOR SPRINGS CLOUDY    28  17  63 NW6       30.16R WCI  21          
HOUGHTON LAKE  LGT SNOW  25  21  85 NW9       30.16R FOG     WCI  15  
MANISTEE       FLURRIES  29  19  66 NW5       30.22R WCI  24          
OSCODA         PTCLDY    23  16  75 NW5       30.15R WCI  16          
PELLSTON       CLOUDY    27  19  72 N8        30.16R WCI  19          
ROGERS CITY    CLOUDY    26  18  71 N9        30.17R WCI  17          
TRAVERSE CITY  CLOUDY    30  17  58 NW14      30.19R WCI  19          
$$
MIZ007>008-015-221100-
EASTERN UPPER MICHIGAN
  
CITY           SKY/WX    TMP DP  RH WIND       PRES   REMARKS
KINROSS        LGT SNOW  19  18  93 CALM      30.15R FOG              
MACKINAC ISLAN CLOUDY    26  20  78 NW5       30.15S WCI  20          
NEWBERRY       MOCLDY    20  19  97 W6        30.14S WCI  12          
S. S. MARIE    LGT SNOW  22  16  78 SW7       30.14R WCI  13          
$$
MIZ004>006-011>014-085-221100-
CENTRAL UPPER MICHIGAN
  
CITY           SKY/WX    TMP DP  RH WIND       PRES   REMARKS
MANISTIQUE     PTCLDY    20  15  81 W8        30.19R WCI  10          
ESCANABA       PTCLDY    21  15  78 W6        30.23R WCI  13          
MENOMINEE      CLOUDY    25  14  63 NW7       30.26R WCI  17          
SAWYER-GWINN   CLOUDY    21  17  84 W10       30.18R WCI   9          
$$
MIZ001>003-009>011-084-221100-
WESTERN UPPER MICHIGAN
  
CITY           SKY/WX    TMP DP  RH WIND       PRES   REMARKS
IRON MOUNTAIN  CLOUDY    22  13  68 NW8       30.20R WCI  12          
HOUGHTON       CLOUDY    24  15  68 W10       30.17S WCI  14          
IRONWOOD       FLURRIES  17  13  84 W9        30.23F WCI   6          
$$

ABBREVIATIONS USED IN REMARKS
   TC - TEMPERATURE IN CELSIUS
  WCI - WIND CHILL INDEX
   HX - HEAT INDEX
  VSB - VISIBILITY

  

Return to Home page


Western Regional Climate Center, wrcc@dri.edu